Regional Weather Roundup
Issued by NWS Mt. Holly, NJ

Home | Current Version | Previous Version | Text Only | Print | Product List | Glossary On
Versions: 1 2 3 4 5 6 7 8 9 10 11 12 13 14 15 16 17 18 19 20 21 22 23 24 25 26 27
000
ASUS41 KPHI 221213
RWRPHI

REGIONAL WEATHER ROUNDUP
NATIONAL WEATHER SERVICE MOUNT HOLLY NJ
700 AM EST THU FEB 22 2018

NOTE:  "FAIR" INDICATES FEW OR NO CLOUDS BELOW 12,000 FEET WITH NO
SIGNIFICANT WEATHER AND/OR OBSTRUCTIONS TO VISIBILITY.

 * = STATION DOES NOT REPORT PRECIPITATION (E.G. RAIN, SNOW, ETC.)
        OR FOG.

NJZ015>026-221300-
SOUTHERN NEW JERSEY

CITY           SKY/WX    TMP DP  RH WIND       PRES   REMARKS
POMONA         CLOUDY    56  37  49 NE12      30.47R
6HR MIN TEMP:  56; 6HR MAX TEMP:  63;

WILDWOOD*      CLOUDY    53  43  68 E15G22    30.47R
MILLVILLE      CLOUDY    56  43  61 NE9       30.47R
WRIGHTSTOWN    CLOUDY    51  37  57 NE12G20   30.47R
MOUNT HOLLY    CLOUDY    52  37  56 NE9       30.49R
TRENTON        CLOUDY    50  36  58 N9        30.51R
6HR MIN TEMP:  50; 6HR MAX TEMP:  56;


$$
NJZ001>014-221300-
NORTHERN NEW JERSEY

CITY           SKY/WX    TMP DP  RH WIND       PRES   REMARKS
SUSSEX         LGT RAIN  42  32  67 NE9       30.58R
ANDOVER*         N/A     42  36  79 VRB6      30.55R
MORRISTOWN     CLOUDY    43  39  87 NE9G18    30.55S
NEWARK         LGT RAIN  45  37  73 NE17      30.53F
TETERBORO      CLOUDY    45  39  79 N8G17     30.53F
CALDWELL       CLOUDY    43  38  82 VRB7      30.56S
SOMERVILLE     LGT RAIN  44  37  76 MISG      30.54R
ALLAIRE*       CLOUDY    49  31  49 NE16G23   30.51S
TOMS RIVER*    CLOUDY    52  36  54 NE21      30.51R

$$
PAZ043-044-047-054-055-060>062-066>071-221300-
EASTERN PENNSYLVANIA

CITY           SKY/WX    TMP DP  RH WIND       PRES   REMARKS
PHILADELPHIA   CLOUDY    51  36  56 NE13      30.49S
6HR MIN TEMP:  51; 6HR MAX TEMP:  57;

NORTH PHILA    CLOUDY    53  38  56 NE10      30.52R
BLUE BELL*     CLOUDY    46  36  66 CALM      30.52R
DOYLESTOWN     CLOUDY    47  39  74 N9        30.51R
QUAKERTOWN*    CLOUDY    43  39  87 N8G15     30.53R
PERKASIE*      CLOUDY    43  39  87 NE10      30.53R
POTTSTOWN      LGT RAIN  44  37  76 NE9       30.53R
LANCASTER      CLOUDY    45  35  68 N7        30.53R
COATESVILLE    CLOUDY    48 N/A N/A NE6       30.50R
READING        LGT RAIN  44  40  85 N9        30.52R
6HR MIN TEMP:  44; 6HR MAX TEMP:  50; 6HR PCP:  0.01;

ALLENTOWN      CLOUDY    44  37  76 N8        30.56R
6HR MIN TEMP:  44; 6HR MAX TEMP:  52; 6HR PCP:  0.07;

MOUNT POCONO   CLOUDY    34  33  96 N9        30.50S WCI  27
6HR MIN TEMP:  34; 6HR MAX TEMP:  38; 6HR PCP:  0.01;

HAZLETON       LGT RAIN  34  32  93 N3        30.55R
LEHIGHTON      RAIN      41  37  87 CALM      30.58R
WILKES BARRE   LGT RAIN  37  34  89 N7        30.55F WCI  32

$$
DEZALL-MDZ008-012-015-019-020-221300-
DELAWARE AND EASTERN MARYLAND

CITY           SKY/WX    TMP DP  RH WIND       PRES   REMARKS
WILMINGTON     CLOUDY    52  36  54 NE10      30.49R
6HR MIN TEMP:  52; 6HR MAX TEMP:  58;

DOVER          CLOUDY    56  46  69 NE9       30.45S
GEORGETOWN     CLOUDY    57  45  64 E15       30.46R
6HR MIN TEMP:  57; 6HR MAX TEMP:  67;

EASTON         CLOUDY    59  46  63 E5        30.48R
ABERDEEN       CLOUDY    54  37  54 N8        30.50R
PATUXENT       CLOUDY    55  49  80 N5        30.43
OCEAN CITY     CLOUDY    51  50  96 NE9       30.46R
WALLOPS ISLAND CLOUDY   N/A N/A N/A CALM      30.44R
CAMBRIDGE      CLOUDY    59  54  82 VRB6G14   30.43S
SALISBURY      CLOUDY    57  53  86 E10       30.45R

$$
PAZ001-021-NYZ056-072-MDZ011-DCZ001-221300-
OTHER NEARBY LOCATIONS

CITY           SKY/WX    TMP DP  RH WIND       PRES   REMARKS
HARRISBURG     LGT RAIN  45  36  70 N5        30.52S
STATE COLLEGE  LGT RAIN  36  32  87 NE8       30.54R WCI  29
WILLIAMSPORT   CLOUDY    38  32  79 N3        30.60R
BINGHAMTON     MIX PCPN  31  27  85 N5        30.54R WCI  26
NEW YORK CITY  CLOUDY    46  36  68 NE9       30.56F
BALTIMORE      CLOUDY    53  33  46 NE16      30.45S
WASHINGTON DC  CLOUDY    56  41  57 NE9       30.45R

$$




USA.gov is the U.S. government's official web portal to all federal, state and local government web resources and services.